N5TUG Weather Reports


time (UTC)temp
C
wind
direction
speed
KPH
gust
KPH
rain 1hr
cm
rain 24hr
cm
rain mn
cm
humidity
%
barometer
mb
20260505114548 18 16 0.0 6.4 0.00 0.00 0.00 82 1003.2
20260505113055 18 16 1.6 6.4 0.00 0.00 0.00 81 1003.1
20260505111553 18 0 0.0 4.8 0.00 0.00 0.00 81 1002.9
20260505110104 18 16 0.0 6.4 0.00 0.00 0.00 81 1002.7
20260505101551 18 0 0.0 4.8 0.00 0.00 0.00 81 1002.2
20260505100052 18 0 0.0 4.8 0.00 0.00 0.00 81 1002.2
20260505094554 18 16 0.0 6.4 0.00 0.00 0.00 80 1002.1
20260505093053 18 23 0.0 4.8 0.00 0.00 0.00 79 1002.1
20260505091604 19 0 0.0 3.2 0.00 0.00 0.00 80 1002.2
20260505090049 19 23 0.0 3.2 0.00 0.00 0.00 79 1002.2
20260505084553 19 0 0.0 4.8 0.00 0.00 0.00 79 1002.4
20260505083053 19 22 0.0 4.8 0.00 0.00 0.00 78 1002.3
20260505081553 19 0 0.0 3.2 0.00 0.00 0.00 77 1002.6
20260505080100 19 0 0.0 3.2 0.00 0.00 0.00 78 1002.4
20260505074549 20 0 0.0 0.0 0.00 0.00 0.00 76 1003.0
20260505073053 20 0 0.0 3.2 0.00 0.00 0.00 76 1002.9
20260505071555 20 0 0.0 3.2 0.00 0.00 0.00 76 1003.2
20260505070053 20 0 0.0 4.8 0.00 0.00 0.00 77 1003.2
20260505064548 19 0 0.0 0.0 0.00 0.00 0.00 77 1003.4
20260505063110 20 0 0.0 0.0 0.00 0.00 0.00 76 1003.4
20260505061552 20 0 0.0 8.0 0.00 0.00 0.00 74 1002.8
20260505060056 20 0 0.0 6.4 0.00 0.00 0.00 74 1002.5
20260505054607 20 24 1.6 8.0 0.00 0.00 0.00 73 1002.6
20260505053056 20 22 1.6 14.5 0.00 0.00 0.00 73 1002.9
20260505051551 20 0 1.6 12.9 0.00 0.00 0.00 72 1002.9
20260505041555 20 24 3.2 12.9 0.00 0.00 0.00 69 1002.8
20260505040056 20 24 4.8 17.7 0.00 0.00 0.00 70 1003.1
20260505034549 20 24 3.2 17.7 0.00 0.00 0.00 70 1003.0
20260505033047 21 23 3.2 14.5 0.00 0.00 0.00 69 1003.4
20260505031600 21 24 1.6 9.7 0.00 0.00 0.00 66 1003.9
20260505030109 21 0 0.0 4.8 0.00 0.00 0.00 65 1003.8
20260505024559 21 0 0.0 12.9 0.00 0.00 0.00 64 1004.0
20260505023051 21 0 1.6 12.9 0.00 0.00 0.00 64 1003.9
20260505021558 22 24 1.6 9.7 0.00 0.00 0.00 63 1004.0
20260505020047 22 23 1.6 17.7 0.00 0.00 0.00 64 1004.1
20260505014604 22 24 0.0 8.0 0.00 0.00 0.00 64 1003.9
20260505013053 22 22 1.6 14.5 0.00 0.00 0.00 63 1003.9
20260505011604 22 23 1.6 9.7 0.00 0.00 0.00 63 1003.9
20260505010053 23 22 3.2 14.5 0.00 0.00 0.00 62 1003.7
20260505004550 23 22 1.6 9.7 0.00 0.00 0.00 63 1003.9
20260505003051 23 24 1.6 17.7 0.00 0.00 0.00 61 1003.9
20260505001551 23 28 4.8 19.3 0.00 0.00 0.00 61 1004.0
20260505000107 23 23 6.4 20.9 0.00 0.00 0.00 61 1004.3
20260504234551 24 26 3.2 19.3 0.00 0.00 0.00 61 1004.2
20260504233104 24 23 1.6 20.9 0.00 0.00 0.00 61 1004.3
20260504231552 25 22 4.8 22.5 0.00 0.00 0.00 60 1004.3
20260504230053 25 24 6.4 25.7 0.00 0.00 0.00 59 1004.4
20260504224558 25 22 3.2 25.7 0.00 0.00 0.00 60 1004.5
20260504223127 25 22 3.2 24.1 0.00 0.00 0.00 60 1004.4
20260504221554 25 22 6.4 20.9 0.00 0.00 0.00 59 1004.3
20260504220054 25 24 6.4 20.9 0.00 0.00 0.00 58 1004.2
20260504214553 26 26 6.4 22.5 0.00 0.00 0.00 58 1004.5
20260504213102 26 26 6.4 22.5 0.00 0.00 0.00 57 1004.6
20260504211554 26 24 9.7 32.2 0.00 0.00 0.00 56 1004.7
20260504210054 26 21 6.4 27.4 0.00 0.00 0.00 57 1004.8
20260504204550 26 23 4.8 29.0 0.00 0.00 0.00 57 1004.9
20260504203107 26 24 6.4 25.7 0.00 0.00 0.00 56 1005.3
20260504201558 26 26 6.4 29.0 0.00 0.00 0.00 57 1005.4
20260504200120 26 26 4.8 24.1 0.00 0.00 0.00 56 1005.6
20260504194601 26 22 4.8 30.6 0.00 0.00 0.00 57 1005.8
20260504193055 26 28 8.0 27.4 0.00 0.00 0.00 57 1005.9
20260504191557 26 23 6.4 25.7 0.00 0.00 0.00 57 1006.0
20260504190052 26 25 4.8 24.1 0.00 0.00 0.00 57 1006.2
20260504184557 25 24 6.4 30.6 0.00 0.00 0.00 58 1006.4
20260504183053 25 26 9.7 29.0 0.00 0.00 0.00 57 1006.7
20260504181554 25 26 9.7 37.0 0.00 0.00 0.00 57 1006.8
20260504180055 25 24 6.4 35.4 0.00 0.00 0.00 58 1006.8
20260504174548 25 23 8.0 27.4 0.00 0.00 0.00 58 1007.2
20260504173050 25 26 8.0 30.6 0.00 0.00 0.00 57 1007.4
20260504171550 24 26 4.8 24.1 0.00 0.00 0.00 58 1007.5
20260504150103 20 24 11.3 35.4 0.00 0.00 0.00 61 1008.7